Change the Weather History Date:

Sunday, April 28, 2013

  Actual Average (KJAX) Record (KJAX)
Temperature  
Mean Temperature 68 °F 70 °F  
Max Temperature 80 °F 82 °F 94 °F (1991)
Min Temperature 57 °F 57 °F 43 °F (1977)
Degree Days  
Heating Degree Days 0 1  
Month to date heating degree days 54  
Since 1 July heating degree days 1343  
Cooling Degree Days 4 5  
Month to date cooling degree days 102  
Year to date cooling degree days 185  
Growing Degree Days 18 (Base 50)    
Moisture  
Dew Point 61 °F    
Average Humidity 86    
Maximum Humidity 100    
Minimum Humidity 57    
Precipitation  
Precipitation 0.00 in 0.07 in 2.65 in (1964)
Month to date precipitation 2.50  
Year to date precipitation 12.94  
Snow  
Snow 0.00 in 0.00 in 0.00 in (2002)
Month to date snowfall 0.0  
Since 1 July snowfall T  
Snow Depth -    
Sea Level Pressure  
Sea Level Pressure 30.10 in    
Wind  
Wind Speed 2 mph (ESE)    
Max Wind Speed 15 mph    
Max Gust Speed 22 mph    
Visibility 7 miles    
Events      
T = Trace of Precipitation, MM = Missing Value Source: NWS Daily Summary

Daily Weather History Graph

Daily Weather History Graph

Search for Another Location

Airport or City:

Trip Planner

Search our weather history database for the weather conditions in past years. The results will help you decide how hot, cold, wet, or windy it might be!

Date:

Astronomy

Apr. 28, 2013 Rise Set
Actual Time 6:46 AM EDT 8:03 PM EDT
Civil Twilight 6:21 AM EDT 8:28 PM EDT
Nautical Twilight 5:51 AM EDT 8:58 PM EDT
Astronomical Twilight 5:20 AM EDT 9:30 PM EDT
Moon 11:25 PM EDT (4/28) 9:09 AM EDT (4/28)
Length of Visible Light 14h 07m
Length of Day
13h 16m
Waning Gibbous, 89% of the Moon is Illuminated
Apr 28
Waning Gibbous
May 2
Last Quarter
May 9
New
May 18
First Quarter
May 25
Full

Hourly Weather History & Observations

Time (EDT) Temp. Heat Index Dew Point Humidity Pressure Visibility Wind Dir Wind Speed Gust Speed Precip Events Conditions
12:15 AM 59.0 °F - 57.2 °F 94% 30.19 in 8.0 mi Calm Calm - N/A   Clear
12:35 AM 59.0 °F - 57.2 °F 94% 30.19 in 8.0 mi Calm Calm - N/A   Clear
12:55 AM 57.2 °F - 57.2 °F 100% 30.18 in 5.0 mi Calm Calm - N/A   Clear
1:15 AM 57.2 °F - 57.2 °F 100% 30.17 in 5.0 mi Calm Calm - N/A   Clear
1:35 AM 57.2 °F - 57.2 °F 100% 30.16 in 5.0 mi Calm Calm - N/A   Clear
1:55 AM 57.2 °F - 57.2 °F 100% 30.15 in 8.0 mi Calm Calm - N/A   Clear
2:15 AM 57.2 °F - 57.2 °F 100% 30.14 in 3.0 mi Calm Calm - N/A   Clear
2:35 AM 57.2 °F - 57.2 °F 100% 30.12 in 5.0 mi Calm Calm - N/A   Clear
2:55 AM 59.0 °F - 59.0 °F 100% 30.11 in 4.0 mi SSE 4.6 mph - N/A   Clear
3:15 AM 62.6 °F - 62.6 °F 100% 30.12 in 6.0 mi Calm Calm - N/A   Clear
3:35 AM 62.6 °F - 62.6 °F 100% 30.12 in 5.0 mi Calm Calm - N/A   Clear
3:55 AM 59.0 °F - 59.0 °F 100% 30.11 in 4.0 mi Calm Calm - N/A   Partly Cloudy
4:15 AM 59.0 °F - 59.0 °F 100% 30.11 in 3.0 mi Calm Calm - N/A   Partly Cloudy
4:35 AM 59.0 °F - 59.0 °F 100% 30.11 in 2.5 mi Calm Calm - N/A   Partly Cloudy
4:55 AM 59.0 °F - 59.0 °F 100% 30.12 in 3.0 mi Calm Calm - N/A   Partly Cloudy
5:15 AM 57.2 °F - 57.2 °F 100% 30.11 in 5.0 mi Calm Calm - N/A   Scattered Clouds
5:35 AM 59.0 °F - 59.0 °F 100% 30.12 in 3.0 mi Calm Calm - N/A   Mostly Cloudy
5:55 AM 60.8 °F - 60.8 °F 100% 30.11 in 4.0 mi Calm Calm - N/A   Mostly Cloudy
6:15 AM 59.0 °F - 59.0 °F 100% 30.10 in 2.5 mi Calm Calm - N/A   Partly Cloudy
6:35 AM 59.0 °F - 59.0 °F 100% 30.11 in 2.5 mi Calm Calm - N/A   Partly Cloudy
6:50 AM 59.0 °F - 59.0 °F 100% 30.11 in 4.0 mi Calm Calm - N/A   Partly Cloudy
7:50 AM - - 62.6 °F N/A% 30.14 in 6.0 mi Calm Calm - N/A   Mostly Cloudy
8:50 AM 66.2 °F - 66.2 °F 100% 30.16 in 7.0 mi Variable 5.8 mph - N/A   Mostly Cloudy
9:50 AM 73.4 °F - 66.2 °F 78% 30.17 in 10.0 mi Calm Calm - N/A   Clear
10:50 AM 75.2 °F - 64.4 °F 69% 30.16 in 10.0 mi ESE 10.4 mph - N/A   Mostly Cloudy
11:50 AM 77.0 °F - 64.4 °F 65% 30.14 in 10.0 mi SSE 8.1 mph - N/A   Mostly Cloudy
12:50 PM 77.0 °F - 64.4 °F 65% 30.11 in 10.0 mi ESE 11.5 mph - N/A   Mostly Cloudy
1:50 PM 78.8 °F - 62.6 °F 57% 30.10 in 10.0 mi SSE 11.5 mph - N/A   Mostly Cloudy
2:50 PM 80.6 °F 82.3 °F 64.4 °F 58% 30.08 in 10.0 mi ESE 11.5 mph - N/A   Mostly Cloudy
3:50 PM 78.8 °F - 62.6 °F 57% 30.05 in 10.0 mi ESE 11.5 mph - N/A   Mostly Cloudy
4:50 PM 77.0 °F - 62.6 °F 61% 30.03 in 10.0 mi East 11.5 mph - N/A   Scattered Clouds
5:50 PM 77.0 °F - 62.6 °F 61% 30.03 in 10.0 mi East 11.5 mph - N/A   Scattered Clouds
6:50 PM 75.2 °F - 62.6 °F 65% 30.02 in 10.0 mi East 15.0 mph 21.9 mph N/A   Scattered Clouds
8:15 PM 71.6 °F - 62.6 °F 73% 30.01 in 10.0 mi ESE 5.8 mph - N/A   Clear
8:35 PM 71.6 °F - 62.6 °F 73% 30.02 in 10.0 mi SE 5.8 mph - N/A   Clear
8:55 PM 71.6 °F - 62.6 °F 73% 30.02 in 10.0 mi East 4.6 mph - N/A   Clear
9:15 PM 71.6 °F - 62.6 °F 73% 30.02 in 10.0 mi ESE 4.6 mph - N/A   Clear
9:35 PM 71.6 °F - 62.6 °F 73% 30.02 in 10.0 mi SE 3.5 mph - N/A   Clear
9:55 PM 69.8 °F - 62.6 °F 78% 30.03 in 10.0 mi SE 3.5 mph - N/A   Clear
10:15 PM 69.8 °F - 62.6 °F 78% 30.04 in 10.0 mi Calm Calm - N/A   Clear
10:35 PM 68.0 °F - 62.6 °F 83% 30.04 in 10.0 mi SE 3.5 mph - N/A   Clear
10:55 PM 68.0 °F - 62.6 °F 83% 30.04 in 10.0 mi Calm Calm - N/A   Clear
11:15 PM 68.0 °F - 62.6 °F 83% 30.04 in 10.0 mi Calm Calm - N/A   Clear
11:55 PM 64.4 °F - 62.6 °F 94% 30.05 in 10.0 mi Calm Calm - N/A   Clear